Location: North Bay Shore
(40.7362°N, 73.2626°W)
Time: 10:13:36
(UTC+00:00)

YAOGAN 6 - Pass Details

Date: 29 October 2020
Orbit: 465 x 503 km, 97.0° (Epoch: 23 November)

Event Time Altitude Azimuth Distance (km) Brightness Sun altitude
Rises 22:25:06 0° 178° (S) 2,562 6.4 -6.8°
Reaches altitude 10° 22:27:12 10° 184° (S) 1,690 5.5 -7.2°
Maximum altitude 22:30:45 51° 261° (W) 640 3.7 -7.9°
Drops below altitude 10° 22:34:22 10° 338° (NNW) 1,718 5.5 -8.5°
Sets 22:36:31 0° 344° (NNW) 2,610 6.4 -8.9°
